Retour au catalogue

STARLINK-30756

ActifCommunicationsVLEO
NORAD 58129·PAYLOAD·🇺🇸 United States

Lancé Oct 22, 2023 depuis Cape Canaveral Space Force Station

Loading…

Prochains Passages (prochaines 24 heures)

TLE

FraisSource: CelesTrak SupGP

Époque: Sep 14, 2026, 21:39 UTC

1 58129C 23162M   26257.90256944 -.00011338  00000+0 -41072-3 0  2571
2 58129  42.9999 143.8960 0001363 258.2639 146.2325 15.27579731    19

Suivez STARLINK-30756 en temps réel avec AllMySat

Download on the App Store